Location: Lane
(33.5226°N, 79.8788°W)
Time: 22:55:38
(UTC+00:00)

Courier 1B Rocket - Pass Details

Date: 07 October 2022
Orbit: 920 x 1201 km, 28.2° (Epoch: 08 December)

Event Time Altitude Azimuth Distance (km) Brightness Sun altitude
Rises 01:18:49 0° 266° (W) 3,777 9.1 -30.2°
Reaches altitude 10° 01:21:39 10° 261° (W) 2,781 8.1 -30.7°
Enters shadow 01:27:14 48° 214° (SSW) 1,240 5.5 -31.8°
